TimeCST,TemperatureF,Dew PointF,Humidity,Sea Level PressureIn,VisibilityMPH,Wind Direction,Wind SpeedMPH,Gust SpeedMPH,PrecipitationIn,Events,Conditions,WindDirDegrees,DateUTC
12:15 AM,41.0,28.4,61,29.92,5.0,WNW,5.8,-,N/A,,Haze,300,2013-02-28 06:15:00
12:35 AM,41.0,28.4,61,29.92,5.0,WNW,4.6,-,N/A,,Haze,300,2013-02-28 06:35:00
12:55 AM,41.0,28.4,61,29.91,5.0,West,4.6,-,N/A,,Haze,280,2013-02-28 06:55:00
1:15 AM,41.0,28.4,61,29.91,5.0,West,4.6,-,N/A,,Haze,270,2013-02-28 07:15:00
1:35 AM,41.0,28.4,61,29.90,5.0,West,5.8,-,N/A,,Haze,260,2013-02-28 07:35:00
1:55 AM,41.0,28.4,61,29.90,5.0,West,4.6,-,N/A,,Haze,270,2013-02-28 07:55:00
2:15 AM,41.0,28.4,61,29.89,5.0,WSW,4.6,-,N/A,,Haze,250,2013-02-28 08:15:00
2:35 AM,41.0,28.4,61,29.89,5.0,WSW,4.6,-,N/A,,Haze,250,2013-02-28 08:35:00
3:15 AM,41.0,28.4,61,29.89,5.0,WSW,6.9,-,N/A,,Haze,240,2013-02-28 09:15:00
3:35 AM,41.0,30.2,65,29.89,5.0,WSW,6.9,-,N/A,,Haze,250,2013-02-28 09:35:00
3:55 AM,41.0,32.0,70,29.89,5.0,WNW,5.8,-,N/A,,Haze,300,2013-02-28 09:55:00
4:35 AM,41.0,30.2,65,29.89,4.0,WNW,8.1,-,N/A,,Haze,300,2013-02-28 10:35:00
4:55 AM,41.0,30.2,65,29.89,4.0,WNW,8.1,-,N/A,,Haze,300,2013-02-28 10:55:00
5:15 AM,41.0,30.2,65,29.90,4.0,WNW,8.1,-,N/A,,Haze,300,2013-02-28 11:15:00
5:35 AM,41.0,30.2,65,29.90,5.0,WNW,8.1,-,N/A,,Haze,290,2013-02-28 11:35:00
5:55 AM,39.2,28.4,65,29.91,4.0,West,9.2,-,N/A,,Haze,280,2013-02-28 11:55:00
6:15 AM,39.2,26.6,61,29.91,4.0,WNW,6.9,16.1,N/A,,Haze,300,2013-02-28 12:15:00
6:35 AM,39.2,26.6,61,29.93,3.0,WNW,11.5,18.4,N/A,,Haze,300,2013-02-28 12:35:00
6:55 AM,39.2,26.6,61,29.94,3.0,WNW,9.2,16.1,N/A,,Haze,290,2013-02-28 12:55:00
7:15 AM,39.2,26.6,61,29.95,3.0,West,11.5,17.3,N/A,,Haze,280,2013-02-28 13:15:00
7:35 AM,39.2,24.8,56,29.96,3.0,West,11.5,19.6,N/A,,Haze,280,2013-02-28 13:35:00
7:55 AM,39.2,24.8,56,29.96,2.5,WNW,6.9,21.9,N/A,,Haze,300,2013-02-28 13:55:00
8:15 AM,39.2,24.8,56,29.97,3.0,NNW,5.8,17.3,N/A,,Haze,330,2013-02-28 14:15:00
8:35 AM,39.2,24.8,56,29.97,3.0,WNW,9.2,-,N/A,,Haze,290,2013-02-28 14:35:00
8:55 AM,39.2,24.8,56,29.97,3.0,NNW,6.9,17.3,N/A,,Haze,330,2013-02-28 14:55:00
9:15 AM,39.2,24.8,56,29.97,3.0,NNW,11.5,20.7,N/A,,Haze,330,2013-02-28 15:15:00
9:55 AM,39.2,24.8,56,29.98,3.0,NW,11.5,-,N/A,,Haze,310,2013-02-28 15:55:00
10:15 AM,39.2,24.8,56,29.98,3.0,NNW,8.1,-,N/A,,Haze,330,2013-02-28 16:15:00
10:35 AM,39.2,24.8,56,29.99,3.0,NNW,9.2,17.3,N/A,,Haze,340,2013-02-28 16:35:00
10:55 AM,39.2,24.8,56,29.99,3.0,NNW,8.1,-,N/A,,Haze,330,2013-02-28 16:55:00
11:15 AM,39.2,24.8,56,30.00,3.0,WNW,10.4,17.3,N/A,,Haze,290,2013-02-28 17:15:00
11:35 AM,39.2,24.8,56,30.00,3.0,West,6.9,-,N/A,,Haze,280,2013-02-28 17:35:00
11:55 AM,39.2,26.6,61,30.00,2.5,NW,5.8,-,N/A,,Haze,320,2013-02-28 17:55:00
12:15 PM,39.2,26.6,61,29.99,3.0,NNW,8.1,-,N/A,,Haze,340,2013-02-28 18:15:00
12:35 PM,39.2,26.6,61,30.00,3.0,NNW,6.9,-,N/A,,Haze,330,2013-02-28 18:35:00
12:55 PM,39.2,26.6,61,30.00,3.0,NW,6.9,-,N/A,,Haze,320,2013-02-28 18:55:00
1:15 PM,39.2,26.6,61,30.00,3.0,NNW,5.8,-,N/A,,Haze,330,2013-02-28 19:15:00
1:35 PM,39.2,26.6,61,30.00,3.0,NW,5.8,-,N/A,,Haze,320,2013-02-28 19:35:00
1:55 PM,39.2,26.6,61,30.01,3.0,WNW,8.1,-,N/A,,Haze,290,2013-02-28 19:55:00
2:15 PM,39.2,26.6,61,30.02,3.0,WNW,5.8,-,N/A,,Haze,300,2013-02-28 20:15:00
2:35 PM,39.2,26.6,61,30.02,3.0,WNW,5.8,-,N/A,,Haze,290,2013-02-28 20:35:00
3:15 PM,39.2,26.6,61,30.02,2.5,WNW,9.2,16.1,N/A,,Haze,300,2013-02-28 21:15:00
3:35 PM,39.2,26.6,61,30.02,3.0,WNW,4.6,-,N/A,,Haze,290,2013-02-28 21:35:00
3:55 PM,39.2,26.6,61,30.03,3.0,WNW,9.2,-,N/A,,Haze,290,2013-02-28 21:55:00
4:15 PM,39.2,26.6,61,30.03,3.0,WNW,9.2,-,N/A,,Haze,290,2013-02-28 22:15:00
4:35 PM,37.4,26.6,65,30.04,2.5,WNW,6.9,-,N/A,,Haze,290,2013-02-28 22:35:00
4:55 PM,37.4,26.6,65,30.04,3.0,NW,5.8,-,N/A,,Haze,310,2013-02-28 22:55:00
5:15 PM,37.4,24.8,60,30.04,3.0,WNW,4.6,-,N/A,,Haze,300,2013-02-28 23:15:00
5:35 PM,37.4,24.8,60,30.04,3.0,Calm,Calm,-,N/A,,Haze,0,2013-02-28 23:35:00
5:55 PM,37.4,24.8,60,30.05,4.0,North,4.6,-,N/A,,Haze,350,2013-02-28 23:55:00
6:15 PM,37.4,24.8,60,30.05,5.0,NW,5.8,-,N/A,,Haze,320,2013-03-01 00:15:00
6:35 PM,37.4,24.8,60,30.05,5.0,NNW,5.8,-,N/A,,Haze,330,2013-03-01 00:35:00
6:55 PM,37.4,24.8,60,30.06,5.0,WNW,4.6,-,N/A,,Haze,300,2013-03-01 00:55:00
7:15 PM,37.4,24.8,60,30.06,4.0,NW,3.5,-,N/A,,Haze,310,2013-03-01 01:15:00
7:35 PM,37.4,24.8,60,30.06,5.0,NW,5.8,-,N/A,,Haze,310,2013-03-01 01:35:00
8:15 PM,37.4,24.8,60,30.06,5.0,NNW,3.5,-,N/A,,Haze,340,2013-03-01 02:15:00
8:35 PM,37.4,24.8,60,30.06,5.0,North,4.6,-,N/A,,Haze,10,2013-03-01 02:35:00
8:55 PM,37.4,24.8,60,30.06,5.0,NNW,5.8,-,N/A,,Haze,340,2013-03-01 02:55:00
9:15 PM,37.4,24.8,60,30.06,5.0,North,8.1,-,N/A,,Haze,350,2013-03-01 03:15:00
9:35 PM,37.4,24.8,60,30.06,4.0,NW,4.6,-,N/A,,Haze,320,2013-03-01 03:35:00
9:55 PM,37.4,24.8,60,30.06,5.0,NW,6.9,-,N/A,,Haze,310,2013-03-01 03:55:00
10:15 PM,37.4,24.8,60,30.06,5.0,NNW,5.8,-,N/A,,Haze,340,2013-03-01 04:15:00
10:55 PM,37.4,24.8,60,30.04,5.0,NNW,4.6,-,N/A,,Haze,340,2013-03-01 04:55:00
11:35 PM,37.4,24.8,60,30.03,5.0,NNW,3.5,-,N/A,,Haze,330,2013-03-01 05:35:00
11:55 PM,37.4,24.8,60,30.03,5.0,Calm,Calm,-,N/A,,Haze,0,2013-03-01 05:55:00